Regional Weather Roundup
Issued by NWS

Home | Current Version | Previous Version | Graphics & Text | Print | Product List | Glossary Off
Versions: 1 2 3 4 5 6 7 8 9 10 11 12 13 14 15 16 17 18 19 20 21 22 23 24 25 26 27

000
ASUS45 KTFX 180510
RWRMT
MONTANA REGIONAL WEATHER ROUNDUP
NATIONAL WEATHER SERVICE GREAT FALLS MT
1100 PM MDT THU AUG 17 2017

NOTE: "FAIR" INDICATES FEW OR NO CLOUDS BELOW 12000 FEET WITH NO
SIGNIFICANT WEATHER AND/OR OBSTRUCTIONS TO VISIBILITY.

MTZ001>007-043-180600-
WEST OF THE DIVIDE

CITY           SKY/WX    TMP DP  RH WIND       PRES   REMARKS
KALISPELL      CLEAR     61  44  53 CALM      30.04S
MISSOULA       PTCLDY    67  40  37 N9        30.08R
BUTTE          CLEAR     57  36  45 E6        30.20S
MULLAN PASS    CLEAR     56  36  47 NW5       30.24S
ANACONDA         N/A     59  34  38 SW6       30.17S
DEER LODGE       N/A     61  37  41 W7        30.17S
EUREKA           N/A     70  43  37 MISG      30.02R
HAMILTON         N/A     63  43  48 CALM      30.12R
LIBBY            N/A     66  43  42 SE5       30.03S
PLAINS           N/A     65  41  41 CALM      30.06S
RONAN            N/A     61  45  55 CALM      30.11S
THOMPSON FALLS   N/A     64  46  52 CALM      30.10R
$$

MTZ008-052>055-180600-
SOUTHWEST MONTANA

CITY           SKY/WX    TMP DP  RH WIND       PRES   REMARKS
BOZEMAN        CLOUDY    61  42  49 S8        30.13R
DILLON         CLEAR     63  32  31 SE5       30.15R
W YELLOWSTONE  CLEAR     59  37  44 S10       30.26S
ENNIS          CLEAR     59  37  44 CALM      30.21R
THREE FORKS      N/A     56  38  50 CALM      30.10R
TWIN BRIDGES     N/A     68  38  33 CALM      30.12R
$$

MTZ009-010-012-014-046-048-049-054-180600-
EAST SLOPES AND CENTRAL MONTANA

CITY           SKY/WX    TMP DP  RH WIND       PRES   REMARKS
CUT BANK       CLEAR     64  38  38 W12       30.03S
GREAT FALLS    CLOUDY    70  36  28 CALM      30.04R
MALMSTROM AFB  MOCLDY    68  35  30 SW3       30.03S
HELENA         CLEAR     74  37  26 SW9       30.09R
AUGUSTA          N/A     62  33  33 W8        30.09S
BOWMANS CRNR     N/A     65  32  28 NW14      30.07S
CHOTEAU          N/A     64  39  39 W5        30.07F
FAIRFIELD        N/A     67  35  31 W3        30.05F
POWER            N/A     63  34  34 N8        30.05R
RAYNESFORD       N/A     59  37  44 E3        30.07S
ULM              N/A     62  36  38 SW8       30.04R
$$

MTZ011-013-016-021-045-047-050-051-180600-
NORTH CENTRAL MONTANA

CITY           SKY/WX    TMP DP  RH WIND       PRES   REMARKS
HAVRE          CLEAR     60  37  42 S6        29.97S
LEWISTOWN      CLEAR     59  36  42 SE7       30.08S
N BAR RANCH      N/A     63  32  31 W8        30.12S
CHINOOK          N/A     64  43  45 CALM      29.97S
DENTON           N/A     64  33  31 CALM      30.01R
GEYSER           N/A     67  33  28 S9        30.06S
GRASS RANGE      N/A     61  33  35 SW10      30.03S
JUDITH GAP       N/A     62  34  35 NW6       30.11S
WINIFRED       MOCLDY    66  34  30 E12       30.04R
$$

MTZ017>020-022>027-061-062-180600-
NORTHEAST MONTANA

CITY           SKY/WX    TMP DP  RH WIND       PRES   REMARKS
GLASGOW        CLOUDY    68  44  42 NE10      29.94S
JORDAN           N/A     61  37  41 CALM      29.97R
SIDNEY         CLEAR     67  52  58 N7        29.94R
WOLF POINT     PTCLDY    65  44  46 E3        29.94S
MALTA          CLEAR     61  45  55 CALM      29.97R
PLENTYWOOD       N/A     64  50  59 CALM      29.95S
POPLAR           N/A     66  50  55 CALM      29.94F
SCOBEY           N/A     60  46  59 CALM      29.96S
$$

MTZ028>42-056>058-180600-
SOUTHCENTRAL AND SOUTHEAST MONTANA

CITY           SKY/WX    TMP DP  RH WIND       PRES   REMARKS
BAKER          PTCLDY    61  46  57 CALM      29.98R
BILLINGS       MOCLDY    72  34  24 CALM      30.05R
LIVINGSTON     CLOUDY    59  38  45 W5        30.12R
MILES CITY     CLEAR     70  42  36 NE8       29.96R
BIG TIMBER     CLEAR     61  37  41 SW5       30.14R
EKALAKA          N/A     61  39  44 SE6       29.98S
FORSYTH          N/A     70  37  30 CALM      29.97S
HARLOWTON        N/A     60  33  36 MISG      30.10S
LAUREL           N/A     68  33  27 CALM      30.04F
$$

REGIONAL REPORTS...DAKOTAS

CITY           SKY/WX    TMP DP  RH WIND       PRES   REMARKS
WILLISTON      CLEAR     64  54  69 N5        29.92S
MINOT          CLOUDY    69  54  58 E20       29.86R
DICKINSON      CLEAR     61  48  62 NW5       29.91R
BEACH            N/A     59  50  72 NW8       30.00R
CROSBY           N/A     63  55  77 W5        29.93F
TIOGA            N/A     61  61 100 NE5       29.93F
WATFORD CITY     N/A     61  54  77 CALM      29.91F
BISMARCK       CLOUDY    66  58  75 SW5       29.84R
GRAND FORKS    CLEAR     62  61  96 SW6       29.84R
FARGO          CLOUDY    64  60  87 CALM      29.85F
BUFFALO SD       N/A     62  44  51 W7        29.90R
RAPID CITY     CLEAR     61  50  67 NW13      29.98S
$$

REGIONAL REPORTS...WYOMING/IDAHO/WASHINGTON

CITY           SKY/WX    TMP DP  RH WIND       PRES   REMARKS
GILLETTE       CLEAR     56  45  66 S6        30.07F
SHERIDAN       PTCLDY    61  43  51 CALM      30.06S
BUFFALO WY     CLOUDY    63  37  38 W8        30.13S
CODY           PTCLDY    63  39  41 CALM      30.17R
YELLOWSTONE LA   N/A     45  39  79 CALM      30.36S
IDAHO FALLS    CLEAR     69  38  32 S10       30.14R
SALMON         CLEAR     65  40  39 CALM      30.11R
BOISE          CLEAR     73  37  27 CALM      30.04S
SPOKANE        CLEAR     71  41  33 S5        30.05R
$$

REGIONAL REPORTS...ALBERTA

CITY           SKY/WX    TMP DP  RH WIND       PRES   REMARKS
EDMONTON       MOCLDY    57  50  77 S3        29.91S
CALGARY        PTCLDY    63  46  55 VRB2      29.98F SMOKE
LETHBRIDGE     CLEAR     64  39  39 SE6       29.96S
MEDICINE HAT   CLEAR     64  43  45 E6        29.94S
$$

REGIONAL REPORTS...SASKATCHEWAN

CITY           SKY/WX    TMP DP  RH WIND       PRES   REMARKS
SWIFT CURRENT  PTCLDY    64  43  45 N3        29.97S
REGINA         CLEAR     55  46  71 W3        29.93S
SASKATOON      CLEAR     55  50  82 SW6       29.91S
$$




USA.gov is the U.S. government's official web portal to all federal, state and local government web resources and services.